Location: Mount Cross
(36.6390°N, 79.4878°W)
Time: 09:00:02
(UTC+00:00)

Tiros 1 - Pass Details

Date: 31 March 2023
Orbit: 627 x 661 km, 48.4° (Epoch: 02 June)

Event Time Altitude Azimuth Distance (km) Brightness Sun altitude
Exits shadow 09:17:13 31° 313° (NW) 1,148 8.2 -21.9°
Maximum altitude 09:18:08 34° 337° (NNW) 1,087 8.2 -21.7°
Drops below altitude 10° 09:22:30 10° 43° (NE) 2,077 10.7 -20.9°
Sets 09:25:03 0° 52° (NE) 2,991 11.9 -20.4°
